Starlink 11294

operational
NORAD ID: 61054 Int'l Des: 2024-164 Owner: SPXS Country: US Constellation: starlink
LEOCIRCULAR

About Starlink 11294

Description loading...

Live Position

Loading 3D Globe...

Upcoming Passes

Altitude History

Altitude vs Time

uPlot chart will show altitude changes over time

Two-Line Element Set

1 61054U 24164E 25351.31373275 -.00000290 00000-0 24679-5 0 9995
2 61054 53.1583 357.1442 0001416 80.2784 279.8394 15.69708662 72483
Epoch: Dec 17, 2025 • Age: 17 hours

Current Status

Altitude 362.8 km
Velocity 7.70 km/s
Sub-Earth Point 40.65°N, 33.84°E
Launch Date Sep 13, 2024
Age 1.2 years
Type internet

Technical Details

Classification Payload
Mass 960.00 kg
Dry Mass 910.00 kg
Total Mass 960.00 kg
Length 0.30 m
Diameter 4.10 m
Span 29.00 m
Shape Box + pan
Manufacturer SPXS
Bus Type Starlink V2MD
Phase Status In Orbit
Owner/State SPXS/US

Large Constellations

Loading constellations...